Temperature
5 5 5 5 5 5 5 5 5 5 5 5 5 6 6 6 6 6 6 6 6 6 6 6 6 6 5 5 5 5 5 5 5 5 5 5 5 5 5 5 5 5 5
4 5 5 5 5 5 5 5 5 5 5 5 5 5 5 5 5 5 5 5 5 5 5 5 5 5 5 5 5 5 5 5 5 5 4 4 5 4 5 5 4 4 4
4 4 4 4 4 4 4 4 5 4 4 4 4 5 5 5 5 5 5 5 5 5 5 5 5 5 5 5 5 5 4 4 4 4 4 4 4 4 4 4 4 4 3
3 3 4 4 4 4 4 4 4 4 4 4 4 4 4 4 4 4 4 4 4 4 4 4 4 4 4 4 4 4 4 4 4 4 3 3 3 3 3 3 3 3 3
3 3 3 3 3 3 3 3 3 3 3 3 3 4 4 4 4 4 4 4 4 4 4 4 4 4 4 4 4 4 4 3 3 3 3 3 3 3 3 3 2 2 2
2 2 3 3 3 3 3 3 3 3 3 3 3 3 3 3 3 3 3 3 3 3 3 3 3 3 3 3 3 3 3 3 3 3 3 2 2 2 2 2 2 2 1
2 2 2 2 2 2 2 2 2 2 2 2 3 3 3 3 3 3 3 3 2 2 3 3 3 3 3 3 3 3 2 2 2 2 2 2 2 2 2 1 1 1 1
1 1 1 1 1 2 2 2 2 2 2 2 2 2 2 2 2 2 2 2 2 2 2 2 2 2 2 2 2 2 2 2 2 2 2 2 1 1 1 1 1 1 1
0 1 1 1 1 1 1 1 1 1 1 1 1 1 2 2 2 2 2 1 2 1 1 1 1 1 1 1 1 1 1 1 1 1 1 1 1 1 1 1 0 0 0
-0 -0 -0 -0 0 0 1 0 0 0 1 1 1 1 1 1 1 1 1 1 1 1 1 1 1 1 1 1 1 1 1 1 1 1 1 1 1 0 0 -0 -0 -0 -1
-1 -1 -1 -1 -0 -0 -0 -0 -0 -0 -0 0 0 0 0 0 0 0 0 0 0 0 0 0 0 0 0 0 0 0 0 0 0 0 0 0 -0 -0 -0 -0 -1 -1 -1
-1 -1 -1 -1 -1 -1 -1 -1 -1 -1 -1 -1 -0 -0 -0 -0 -0 -0 -0 -0 -0 -0 -0 -0 -0 -0 -0 -0 -0 -0 -0 -0 -0 -0 -1 -1 -1 -1 -1 -1 -1 -1 -1
-2 -2 -2 -2 -2 -2 -2 -2 -2 -1 -1 -1 -1 -1 -1 -1 -1 -1 -1 -1 -1 -1 -1 -1 -1 -1 -1 -1 -1 -1 -1 -1 -1 -1 -1 -1 -1 -1 -1 -1 -2 -2 -2
-3 -3 -2 -2 -2 -2 -2 -2 -2 -2 -2 -2 -2 -1 -1 -1 -1 -1 -1 -1 -1 -1 -1 -1 -1 -1 -1 -1 -1 -1 -2 -2 -2 -2 -2 -2 -2 -2 -2 -2 -2 -2 -2
-3 -3 -3 -3 -3 -3 -3 -3 -3 -2 -2 -2 -2 -2 -2 -2 -2 -2 -2 -2 -2 -2 -2 -2 -2 -2 -2 -2 -2 -2 -2 -2 -2 -2 -2 -2 -2 -3 -3 -3 -3 -3 -3
-4 -4 -4 -3 -3 -3 -3 -3 -3 -3 -3 -3 -2 -2 -2 -2 -2 -2 -2 -2 -2 -2 -2 -2 -2 -2 -2 -3 -3 -3 -3 -3 -3 -3 -3 -3 -3 -3 -3 -4 -4 -4 -4
-4 -4 -4 -4 -4 -4 -4 -4 -4 -3 -3 -3 -3 -3 -3 -3 -3 -3 -3 -3 -3 -3 -3 -3 -3 -3 -3 -3 -3 -3 -3 -4 -4 -4 -4 -4 -4 -4 -4 -4 -4 -4 -5
-5 -5 -5 -4 -4 -4 -4 -4 -4 -4 -4 -3 -3 -3 -3 -3 -3 -3 -3 -3 -3 -3 -3 -3 -3 -4 -4 -4 -4 -4 -4 -4 -4 -4 -4 -4 -4 -5 -5 -5 -5 -5 -5
-5 -5 -5 -5 -5 -5 -5 -5 -4 -4 -4 -4 -4 -4 -4 -4 -4 -4 -4 -4 -4 -4 -4 -4 -4 -4 -4 -4 -4 -4 -4 -5 -5 -5 -5 -5 -5 -5 -5 -5 -5 -5 -5
-6 -6 -6 -6 -5 -5 -5 -5 -5 -5 -5 -5 -5 -5 -5 -5 -5 -5 -4 -4 -4 -4 -4 -5 -5 -5 -5 -5 -5 -5 -5 -5 -5 -5 -5 -5 -5 -6 -6 -6 -6 -6 -6
-6 -6 -6 -6 -6 -6 -6 -6 -6 -6 -6 -6 -6 -6 -6 -5 -5 -5 -5 -5 -5 -5 -5 -5 -5 -5 -5 -5 -5 -5 -5 -6 -6 -6 -6 -6 -6 -6 -6 -6 -6 -6 -6
-7 -7 -7 -7 -7 -6 -6 -6 -6 -6 -6 -6 -6 -6 -6 -6 -6 -6 -6 -6 -6 -6 -6 -6 -6 -6 -6 -6 -6 -6 -6 -6 -6 -6 -6 -6 -6 -6 -6 -6 -6 -6 -7
-8 -8 -7 -7 -7 -7 -7 -7 -7 -7 -7 -7 -7 -7 -7 -7 -6 -6 -6 -6 -6 -6 -6 -6 -6 -6 -6 -6 -6 -6 -6 -6 -6 -6 -6 -6 -6 -7 -7 -7 -7 -7 -7
-8 -8 -8 -8 -8 -8 -7 -7 -7 -8 -8 -7 -7 -7 -7 -7 -7 -7 -7 -7 -7 -7 -7 -7 -7 -7 -7 -7 -7 -7 -7 -7 -7 -7 -7 -7 -7 -7 -7 -7 -7 -7 -7
-9 -9 -8 -8 -8 -8 -8 -8 -8 -8 -8 -8 -8 -8 -8 -8 -8 -7 -7 -7 -7 -7 -7 -7 -7 -7 -7 -7 -7 -7 -7 -7 -7 -7 -7 -7 -7 -7 -7 -7 -7 -8 -8
-9 -9 -9 -9 -9 -9 -9 -9 -9 -8 -8 -8 -8 -8 -8 -8 -8 -8 -8 -8 -8 -8 -8 -8 -8 -8 -8 -7 -7 -8 -8 -8 -8 -8 -8 -8 -8 -8 -8 -8 -8 -8 -8
Wind_Speed
0 0 0 1 1 1 2 3 3 3 3 3 3 3 3 3 3 3 3 4 5 4 5 6 6 5 4 4 3 3 3 3 4 3 2 1 2 2 1 1 2 3 3
1 1 1 1 1 1 2 3 3 3 3 3 3 3 3 3 3 4 4 4 5 5 5 5 5 4 5 4 4 4 4 4 4 4 2 2 2 2 1 1 1 2 3
1 1 1 1 2 2 3 3 3 3 3 3 3 4 4 3 4 4 4 4 5 5 5 5 5 5 5 4 5 5 4 3 3 4 3 2 1 1 0 1 1 1 2
1 1 1 2 2 3 2 2 2 3 3 3 3 3 3 3 4 4 4 4 4 4 4 5 5 6 6 5 5 5 4 4 3 3 3 2 2 1 1 1 1 1 1
1 1 2 3 2 2 2 2 1 2 2 2 2 2 3 3 3 4 4 4 4 4 4 4 5 6 7 6 5 5 5 4 4 3 3 2 2 2 2 2 2 1 2
2 2 2 2 2 2 2 1 1 1 2 2 2 3 3 3 4 5 4 4 4 4 4 4 4 5 6 7 7 7 7 6 5 4 3 4 4 4 3 3 2 1 2
2 2 2 2 2 3 2 1 1 1 1 2 2 2 3 4 4 5 5 4 4 4 4 4 3 3 4 3 4 5 6 7 6 5 5 6 5 5 5 4 3 3 3
2 3 3 3 3 3 2 2 2 1 2 2 2 2 2 3 4 4 4 3 3 3 3 3 3 3 3 3 3 2 2 3 4 3 4 4 4 5 5 4 3 1 1
3 4 4 3 3 3 3 2 2 1 2 2 2 2 2 3 4 4 3 2 2 2 2 2 2 3 4 4 3 3 1 1 1 1 1 2 3 4 4 3 3 2 2
5 4 4 4 4 4 3 2 2 2 2 1 1 2 2 3 3 3 3 2 2 2 1 1 2 2 3 4 3 3 2 1 1 2 2 1 1 2 2 3 3 3 2
5 4 4 4 3 3 2 2 1 1 1 1 1 1 1 2 2 2 2 2 2 2 2 1 1 3 2 3 2 2 3 2 2 2 2 2 2 1 1 1 1 2 3
4 4 4 3 3 2 1 1 1 1 1 1 1 1 1 1 1 1 2 3 3 3 2 1 1 2 2 2 1 2 3 3 2 2 2 1 1 1 1 1 1 1 1
4 4 4 3 3 1 1 1 1 1 1 1 1 1 1 1 0 1 2 2 3 2 2 3 3 3 2 2 3 3 3 2 2 2 1 0 0 1 1 1 2 3 3
4 4 3 3 3 2 1 1 1 1 1 1 1 1 1 0 0 0 1 1 2 2 3 3 4 4 4 3 3 2 2 2 2 2 1 1 1 1 1 1 0 1 1
4 4 3 3 2 2 2 1 1 1 2 2 2 2 2 1 1 1 2 2 2 3 3 3 3 3 3 2 2 2 2 2 1 1 1 1 1 1 1 0 0 1 1
4 4 3 2 2 1 1 2 3 1 1 0 1 1 0 1 1 2 2 3 4 5 4 3 3 3 2 2 2 1 1 1 1 1 1 1 1 1 0 0 1 1 1
3 3 2 2 1 1 1 0 1 3 5 4 3 3 3 3 3 3 4 5 5 6 4 3 2 2 1 1 1 1 1 0 1 1 1 1 1 0 0 0 1 0 0
4 3 3 1 1 1 1 0 0 1 2 3 5 6 5 5 5 5 5 5 4 3 3 3 2 2 1 1 1 1 1 1 1 1 1 1 1 0 0 1 1 1 1
3 3 2 1 1 1 1 1 2 2 2 3 3 4 6 6 6 6 5 4 3 3 2 2 2 2 1 1 1 1 1 1 0 0 0 0 0 0 1 1 1 1 1
3 4 3 2 1 2 2 2 2 2 2 2 2 2 3 3 3 4 4 3 3 3 2 2 2 2 1 1 1 1 1 1 0 0 0 0 0 1 1 2 1 1 1
3 3 4 2 2 2 2 2 2 2 2 2 2 3 4 3 3 3 3 3 3 2 2 2 1 1 1 1 1 1 1 0 0 0 0 1 1 1 1 1 1 1 1
2 2 2 2 2 2 2 2 2 2 2 3 3 3 5 4 3 3 3 3 3 2 2 2 2 1 1 1 0 0 0 0 1 0 1 1 1 1 1 1 1 1 1
2 2 2 2 2 2 3 2 2 2 2 2 2 3 3 3 3 3 3 3 3 3 3 2 2 2 2 2 1 0 1 1 1 1 1 1 1 1 1 1 2 1 2
2 2 2 2 2 2 2 2 2 2 2 2 2 2 2 2 2 3 3 2 3 3 3 3 2 2 3 3 2 1 1 1 1 1 2 2 2 1 1 1 1 2 2
2 2 2 1 1 1 1 1 1 2 2 2 2 2 2 2 2 2 2 2 2 3 3 3 3 3 3 3 3 2 3 3 2 1 2 2 2 2 2 2 2 2 2
2 2 2 1 1 1 1 1 1 1 1 1 1 1 1 1 1 1 1 2 2 2 2 3 3 3 4 3 3 3 4 4 3 3 1 1 2 2 2 2 2 2 2
Wind_Direction
250 231 218 244 244 229 222 224 223 219 214 210 211 211 208 205 205 207 213 202 208 210 205 201 206 197 197 198 194 201 201 202 236 260 245 243 231 222 264 258 267 262 262
276 247 241 259 259 244 243 241 232 223 218 213 208 209 212 211 207 210 218 214 211 211 209 203 208 199 198 197 197 202 206 206 215 241 250 247 245 221 216 223 274 258 254
334 308 284 271 260 260 258 250 235 226 223 215 206 211 215 216 217 220 215 219 220 219 212 208 208 197 205 203 200 200 203 207 207 216 236 247 259 231 221 297 286 286 270
327 296 286 276 265 264 267 257 243 231 223 220 218 219 221 218 221 222 216 216 220 223 218 214 210 205 207 201 203 202 198 199 197 202 219 231 237 221 173 226 293 289 286
310 289 277 282 277 270 277 279 269 248 238 225 226 230 234 229 226 223 215 216 216 222 226 223 220 215 213 208 206 199 192 194 194 201 212 229 232 217 219 212 240 277 293
288 283 286 286 282 263 258 271 274 263 246 224 226 227 232 241 246 234 224 217 218 222 229 231 227 221 221 219 216 208 197 197 203 209 221 222 229 222 210 206 207 234 263
306 298 290 283 280 274 264 252 245 243 234 234 234 226 233 246 248 239 226 217 218 222 221 220 224 220 211 207 214 213 217 220 214 210 215 222 220 211 196 202 215 228 237
313 302 296 283 279 280 268 256 254 238 226 232 241 240 244 257 251 242 228 215 217 218 214 207 205 210 207 194 186 197 220 229 226 213 209 215 212 196 194 199 199 202 299
308 301 295 287 279 270 261 251 253 239 243 250 247 239 241 259 254 240 223 206 196 201 203 198 194 200 209 195 179 182 192 272 294 205 208 208 193 191 178 152 166 195 273
301 298 296 288 275 263 255 251 256 241 242 244 260 255 248 253 252 233 201 190 185 192 187 197 203 200 202 186 177 172 184 204 121 80 63 52 109 160 193 196 191 206 239
306 304 302 292 277 262 260 257 238 231 223 238 259 283 275 260 252 226 197 185 185 175 171 187 202 181 175 179 182 181 187 162 127 118 102 76 66 73 86 151 187 203 216
317 312 308 303 292 277 254 272 243 196 188 212 235 295 306 298 269 218 201 188 171 161 172 176 164 150 141 138 150 147 139 124 118 114 102 87 76 53 41 69 77 108 195
332 326 324 320 317 306 252 246 258 218 197 222 216 237 274 278 251 213 182 164 149 144 146 138 126 118 105 102 107 112 110 113 124 129 136 131 104 138 104 82 76 74 58
333 330 328 328 329 333 303 241 216 213 208 215 222 227 246 251 183 135 140 131 121 121 117 120 111 102 94 88 81 80 84 113 129 138 137 109 89 87 82 84 93 55 43
332 328 331 333 330 338 339 312 252 231 214 209 214 204 191 211 224 185 163 158 151 144 124 105 98 101 98 86 79 76 75 83 89 108 124 121 104 85 54 47 127 102 108
333 333 333 331 331 342 359 4 14 18 35 90 155 159 135 122 109 127 136 129 128 129 113 115 112 108 112 113 107 87 79 95 108 116 117 125 122 122 108 69 88 122 147
326 322 318 319 322 328 340 23 21 31 44 59 80 91 93 100 99 104 107 105 109 115 104 111 112 115 111 109 107 105 94 88 110 124 129 126 119 121 125 124 134 118 101
332 331 329 315 316 325 337 343 87 91 64 49 52 64 73 83 89 97 101 95 90 87 90 107 112 113 109 107 107 103 93 81 86 117 126 136 152 166 184 200 201 207 237
337 340 341 342 3 19 39 59 67 69 76 67 55 49 53 63 69 73 80 88 102 95 84 87 93 100 100 102 97 93 91 79 56 73 107 137 168 199 226 228 225 227 243
346 350 355 7 33 47 57 66 69 66 64 67 58 44 38 53 65 59 56 68 81 86 84 84 80 81 81 87 93 93 84 78 58 31 353 185 217 228 226 229 231 239 239
348 354 6 22 37 48 58 63 66 69 67 63 52 44 54 68 75 71 67 65 67 66 67 70 69 65 66 69 78 98 96 75 2 313 286 252 232 245 242 237 239 235 223
358 6 20 31 37 43 47 53 61 62 60 61 48 40 50 57 61 61 57 50 44 43 44 58 59 48 39 37 54 80 92 295 293 303 299 283 263 244 230 241 244 247 231
11 20 25 28 34 41 48 51 55 55 52 49 48 46 45 48 49 53 51 42 35 30 32 40 40 24 27 28 30 13 234 261 260 242 248 253 245 233 235 245 244 253 252
20 28 33 33 40 49 52 52 51 49 47 44 44 44 46 47 47 43 40 34 32 27 27 29 31 24 10 8 10 3 329 266 239 212 217 226 226 232 232 232 238 249 251
26 25 32 42 45 49 48 47 48 43 37 33 34 35 32 33 34 29 28 29 31 26 19 18 19 15 3 348 338 331 322 316 310 254 213 200 213 217 219 228 231 240 243
19 25 24 25 36 38 38 32 32 35 30 20 23 30 29 24 20 13 13 21 19 10 5 5 359 350 340 335 325 322 323 322 316 303 262 200 208 217 213 221 216 219 216
Height
1461 1462 1463 1464 1465 1465 1466 1467 1468 1470 1471 1472 1473 1474 1475 1477 1478 1479 1480 1481 1482 1483 1484 1486 1487 1489 1490 1492 1494 1496 1497 1498 1498 1498 1499 1500 1501 1502 1502 1503 1504 1504 1505
1458 1459 1460 1461 1461 1462 1463 1464 1465 1466 1467 1468 1469 1470 1471 1472 1474 1475 1475 1477 1478 1478 1480 1481 1482 1484 1485 1487 1489 1490 1492 1493 1494 1493 1494 1495 1496 1497 1497 1497 1498 1499 1500
1456 1456 1457 1458 1458 1459 1459 1460 1461 1462 1463 1464 1465 1466 1467 1468 1469 1470 1471 1472 1473 1474 1475 1476 1477 1479 1480 1482 1484 1485 1486 1488 1489 1489 1489 1490 1491 1492 1492 1492 1493 1494 1495
1453 1454 1454 1455 1455 1455 1456 1456 1457 1458 1459 1460 1461 1462 1463 1464 1465 1466 1467 1468 1469 1470 1471 1472 1473 1474 1476 1477 1478 1480 1481 1482 1483 1484 1484 1485 1486 1486 1487 1487 1488 1489 1490
1450 1451 1451 1452 1452 1452 1452 1453 1453 1454 1455 1456 1457 1458 1458 1459 1460 1461 1462 1463 1464 1465 1466 1467 1469 1470 1471 1473 1474 1475 1476 1476 1477 1478 1479 1479 1480 1481 1482 1483 1483 1484 1485
1447 1448 1448 1448 1448 1448 1449 1449 1450 1450 1451 1452 1453 1454 1454 1455 1456 1457 1458 1459 1460 1461 1461 1462 1464 1465 1466 1468 1469 1470 1471 1472 1473 1473 1474 1475 1475 1476 1477 1478 1479 1479 1479
1444 1444 1445 1444 1444 1445 1445 1445 1446 1447 1447 1448 1449 1449 1450 1451 1452 1453 1454 1455 1456 1456 1457 1458 1459 1460 1462 1463 1464 1465 1466 1467 1468 1469 1469 1470 1471 1472 1473 1473 1474 1475 1475
1441 1441 1441 1441 1441 1441 1442 1442 1442 1443 1443 1444 1445 1445 1446 1447 1448 1448 1450 1450 1451 1452 1452 1453 1455 1456 1457 1458 1459 1460 1461 1462 1463 1464 1465 1465 1467 1468 1469 1470 1470 1470 1471
1438 1438 1438 1438 1438 1438 1438 1438 1439 1439 1439 1440 1441 1441 1442 1442 1443 1444 1445 1446 1447 1447 1448 1450 1450 1452 1453 1454 1455 1456 1457 1458 1459 1460 1461 1461 1462 1463 1464 1465 1465 1466 1465
1436 1435 1435 1435 1435 1435 1435 1435 1435 1435 1436 1436 1437 1438 1438 1439 1440 1441 1441 1442 1443 1443 1445 1446 1447 1448 1450 1451 1452 1452 1453 1454 1454 1455 1456 1457 1458 1459 1460 1461 1461 1462 1462
1433 1433 1432 1432 1432 1431 1431 1431 1431 1432 1432 1433 1433 1434 1434 1435 1436 1437 1438 1439 1439 1440 1441 1442 1444 1445 1446 1447 1448 1449 1449 1450 1451 1451 1452 1453 1454 1454 1455 1456 1457 1458 1458
1430 1430 1429 1429 1429 1428 1428 1428 1428 1429 1429 1429 1430 1430 1431 1432 1432 1433 1434 1435 1437 1437 1438 1439 1440 1442 1443 1444 1445 1446 1446 1447 1448 1448 1448 1449 1450 1451 1452 1453 1453 1454 1455
1427 1426 1426 1426 1426 1425 1425 1425 1425 1426 1426 1426 1427 1427 1428 1429 1429 1430 1431 1432 1433 1434 1435 1436 1438 1439 1440 1441 1442 1443 1443 1444 1445 1445 1445 1446 1447 1448 1448 1449 1450 1451 1451
1425 1424 1424 1423 1423 1423 1423 1423 1423 1424 1424 1424 1425 1425 1426 1426 1427 1428 1428 1429 1430 1431 1432 1434 1435 1436 1438 1438 1439 1440 1440 1441 1442 1442 1442 1443 1444 1445 1445 1446 1446 1447 1447
1423 1422 1421 1421 1421 1421 1421 1421 1422 1422 1423 1423 1423 1424 1424 1424 1425 1426 1426 1427 1428 1429 1430 1431 1432 1434 1435 1436 1436 1437 1438 1439 1439 1440 1440 1440 1441 1441 1442 1443 1443 1444 1444
1421 1420 1420 1420 1420 1420 1420 1420 1420 1421 1421 1421 1422 1422 1423 1424 1424 1424 1424 1425 1426 1427 1428 1429 1430 1431 1432 1433 1434 1435 1436 1437 1437 1437 1438 1438 1438 1439 1439 1440 1441 1441 1441
1420 1419 1418 1418 1418 1418 1418 1418 1418 1419 1419 1420 1420 1421 1421 1422 1422 1423 1423 1424 1425 1426 1426 1427 1428 1430 1431 1431 1432 1433 1434 1434 1435 1435 1436 1436 1437 1437 1437 1438 1438 1438 1438
1419 1418 1417 1416 1416 1416 1417 1417 1417 1417 1417 1418 1419 1420 1420 1420 1421 1421 1422 1423 1423 1424 1425 1426 1427 1428 1429 1430 1431 1431 1432 1432 1433 1433 1434 1434 1435 1435 1435 1435 1436 1436 1436
1417 1416 1415 1415 1415 1415 1415 1415 1416 1416 1416 1417 1417 1418 1419 1419 1420 1420 1421 1422 1422 1423 1424 1425 1426 1427 1428 1428 1429 1430 1430 1430 1431 1431 1431 1432 1432 1433 1433 1433 1434 1434 1434
1416 1415 1415 1414 1414 1414 1414 1415 1415 1415 1416 1416 1416 1417 1418 1418 1419 1419 1420 1421 1422 1422 1423 1424 1425 1425 1426 1427 1427 1428 1428 1428 1429 1429 1429 1430 1430 1431 1431 1431 1431 1431 1431
1414 1414 1414 1414 1414 1414 1414 1414 1414 1415 1415 1416 1416 1417 1417 1418 1418 1419 1419 1420 1421 1421 1422 1423 1423 1424 1424 1425 1425 1426 1426 1426 1427 1427 1427 1427 1428 1428 1428 1429 1429 1429 1429
1414 1414 1413 1413 1414 1414 1414 1414 1414 1414 1415 1415 1416 1416 1417 1417 1418 1418 1419 1419 1420 1421 1421 1421 1422 1422 1423 1423 1424 1424 1424 1424 1424 1424 1425 1425 1425 1425 1426 1426 1426 1426 1426
1414 1413 1413 1413 1413 1414 1414 1414 1414 1414 1415 1415 1415 1416 1416 1417 1417 1418 1418 1419 1419 1419 1420 1420 1420 1421 1421 1422 1422 1422 1422 1422 1422 1422 1422 1422 1423 1423 1423 1423 1423 1423 1423
1414 1414 1413 1413 1413 1413 1413 1413 1414 1414 1415 1415 1415 1415 1416 1416 1417 1417 1417 1418 1418 1418 1419 1419 1419 1419 1419 1420 1420 1420 1420 1420 1420 1420 1420 1420 1420 1420 1420 1420 1420 1420 1420
1414 1414 1413 1413 1413 1413 1413 1413 1413 1414 1414 1414 1415 1415 1415 1416 1416 1416 1417 1417 1417 1417 1417 1417 1418 1418 1418 1418 1418 1418 1417 1417 1417 1417 1417 1417 1417 1417 1417 1417 1417 1417 1417
1414 1413 1413 1413 1413 1413 1413 1413 1413 1413 1414 1414 1414 1415 1415 1415 1415 1416 1416 1416 1415 1416 1416 1416 1416 1416 1416 1416 1416 1415 1415 1415 1414 1414 1414 1414 1414 1414 1414 1414 1414 1414 1414